Game Details

[ Leader Board ] [ Players ] [ Opponents ] [ Guilds ] [ Areas ]

Game Details for: beef

Game Progress

Quest Completed on Day
Mushroom Stew 8

Full Telemetry

Time Game Day Game Hour Game Minute Type Details Value Extra Zone X Y Credits Guild
5/7/2020 3:49:14 PM 11 0 54 Daily beef 876 Village1 6 26 120 None
5/6/2020 11:34:33 PM 4 0 37 Daily beef 498 Village1 10 27 133 None
5/6/2020 11:41:42 PM 8 3 9 Daily beef 647 Village1 10 27 143 None
5/7/2020 4:10:21 PM 15 4 42 Daily beef 1186 Village1 10 27 142 None
5/7/2020 4:09:23 PM 14 4 22 Daily beef 1186 Village1 6 26 111 None
5/7/2020 10:22:41 PM 16 8 41 Daily beef 1279 Village1 10 27 288 None
5/7/2020 10:18:18 PM 15 8 52 Arena Win 4 Village1 10 7 125 None
5/7/2020 10:18:18 PM 15 8 52 Combat Lv 3 Slime Mold 0 Win Village1 10 7 64 None
5/7/2020 10:17:03 PM 15 8 46 Equip Fine Kinetic Field 208 Village1 22 25 4 None
5/7/2020 10:11:58 PM 15 8 58 Arena Loss 3 Village1 10 7 177 None
5/7/2020 10:11:58 PM 15 8 58 Combat Lv 3 Slime Mold 0 Die Village1 10 7 159 None
5/7/2020 4:12:13 PM 15 8 59 Combat Lv 3 Slime Mold 0 Win Village1 10 7 207 None
5/7/2020 4:12:13 PM 15 8 59 Arena Win 4 Village1 10 7 268 None
5/7/2020 4:04:02 PM 13 8 25 Combat Lv 3 Wasp 0 Win Village1 10 7 109 None
5/7/2020 4:04:02 PM 13 8 25 Arena Win 2 Village1 10 7 146 None
5/7/2020 4:02:12 PM 13 8 11 Daily beef 896 Village1 10 27 91 None
5/7/2020 3:56:12 PM 12 8 56 Daily beef 876 Village1 10 27 285 None
5/6/2020 11:49:59 PM 9 8 24 Equip Needle Gun 143 Village1 22 25 119 None
5/6/2020 11:49:05 PM 9 8 21 Daily beef 720 Village1 10 27 284 None
5/6/2020 11:39:59 PM 7 8 44 Daily beef 498 Village1 10 27 134 None
5/6/2020 11:38:37 PM 5 8 23 Daily beef 498 Village1 10 27 0 None
5/6/2020 11:25:58 PM 2 8 32 Daily ???? 498 BuildingHouse1 2 3 0 None
5/6/2020 11:25:16 PM 1 8 25 Combat Chaak Larva 0 Win InsectCave 17 14 0 None
5/6/2020 11:24:19 PM 1 8 21 Combat Chaak Larva 0 Win InsectBasement 10 4 0 None
5/6/2020 11:21:38 PM 1 8 4 Combat Chaak Larva 0 Win InsectBasement 21 13 0 None
5/6/2020 11:20:51 PM 1 8 3 Combat Chaak Larva 0 Win InsectBasement 17 15 0 None
5/6/2020 11:20:13 PM 1 8 1 Equip Knife 56 InsectBasement 10 14 0 None
5/6/2020 11:20:10 PM 1 8 1 Equip Leather Cap 45 InsectBasement 10 14 0 None
5/7/2020 4:05:22 PM 13 9 25 Arena Win 3 Village1 10 7 231 None
5/7/2020 4:05:22 PM 13 9 25 Combat Lv 2 Worg 0 Win Village1 10 7 182 None